Skip Navigation Links
NOAA logo - Click to go to the NOAA homepage
NOAA's National Weather Service
Alaska Aviation Weather Unit
  NWS logo - Click to go to the NWS homepage
Left Navbar Graphic     10 AKDT = 18 GMT

   
NOAA is celebrating 200 years of science, service, and stewardship. Visit the NOAA 200th celebration Web site to learn more.
USA.gov is the U.S. Government's official Web portal to all Federal, state and local government Web resources and services.
Facebook
NWS on Facebook

Important Change Regarding the AAWU Web Presence

 

Over the last several months, the AAWU has been working to navigate its webpages to a nationally supported server. Security, as well as other needs, have necessitated the change.  We have been given an extension for the site changeover while we diligently work at addressing feedback received. As of July 14, 2017, aawu.arh.noaa.gov will be discontinued. The new AAWU web address is weather.gov/aawu. It is now live and will run in-parallel with the old site until it is discontinued on July 14, 2017. Please continue to send any feedback or questions regarding the new webpages to nws.ar.aawu.webauthors@noaa.gov.  Thank you for your patience during this time of transition.
AAWU Home :: Display TAF Add Bookmark
METAR PAPH 261256Z AUTO 07003KT 10SM OVC055 04/02 A2972 RMK AO2 SLP067
     T00390017=

METAR PAPH 261456Z AUTO 05006KT 10SM OVC046 02/01 A2970 RMK AO2
 SLP061 T00220011 58008 FZRANO=

METAR PAPH 261556Z AUTO 04008KT 10SM OVC060 03/02 A2970 RMK AO2 SLP061
     T00280017=

METAR PAPH 261656Z AUTO 06006KT 10SM OVC070 04/03 A2970 RMK AO2 SLP062
     T00440028=

METAR PAPH 261756Z AUTO 07005KT 10SM BKN043 OVC065 06/04 A2970 RMK
 AO2 SLP061 T00610039 10061 20022 58001=


NOAA's National Weather Service
Alaska Aviation Weather Unit
6930 Sand Lake Road
Anchorage, AK 99502-1845
Disclaimer
Credits
Glossary
Privacy Policy
About Us
Career Opportunities
Contact AAWU Internet Services Site last modified: April, 17th 2012